OPS 4682 DEB, 51507

Orbit data source: Space-Track

OPS 4682 DEB, 51507 is space debris in LEO originally from a launch on Sat, 03 Apr 1965 UTC launched from the Air Force Western Test Range (AFWTR). Debris objects in space refer to the collection of defunct objects orbiting the Earth. Examples of debris include non-operational satellites, rocket bodies, and fragments generated from explosions, collisions, or faulty payload assembly.

Loading next visibility...
Identifier
51507, 1965-027GT
Orbit
LEO
Country
Flag of USUS
Related business
Manufacturer
Unknown
Mission
Spacecraft
Bus & Motor
Unknown
Mass
Unknown
Launch date (UTC)
1965-04-03 (61 years ago)
Launch vehicle
Unknown
Launch site
Air Force Western Test Range (AFWTR)
Object type
Payload
Rocket body
Debris
Shape & HBR
Unknown
Radar Cross Section
Medium (>0.1 m² and <1 m²)

Expand to show TLE details & history
Last TLE update: 1 week ago

TLE from 1 week ago
0 OPS 4682 DEB
1 51507U 65027GT  26201.93275336  .00001064  00000-0  33974-2 0  9996
2 51507  90.2487  14.1706 0041126 128.0205 232.4642 13.02043588327482
Epoch: 2026-07-20T22:23Z
TLE epoch observation values (Epoch: 2026-07-20T22:23:09.890Z)
Latitude
-0.00004°
Longitude
99.66969°
Altitude
1,276.185 km
Speed
7.209 km/s
True Right ascension
00h 56m 40s
True Declination
0° 00' 00"
Sunlit
Object was in daylight at epoch
Visualization orbit readout
Latitude
Unknown
Longitude
Unknown
Altitude
Unknown
Speed
Unknown
Apparent Right ascension
Unknown
Apparent Declination
Unknown
Sunlit
N/A
Visualization observer readout
Local Sidereal Time
14:09:36
Azimuth
Unknown
Elevation
Unknown
Doppler factor
Unknown
Orbital elements
Apogee altitude
1,282.591 km
Perigee altitude
1,219.838 km
Semi-major axis
7,629.351 km
Eccentricity
0.00411
Inclination
90.2487°
RAAN
14.1706°
Arg. of periapsis
128.0205°
True anomaly
232.09167°
Mean anomaly
232.4642°
Eccentric anomaly
232.27782°
Mean motion
3.25696 °/min
Orbital period
110.53 mins
BSTAR
0.0033974
Loading maneuver chart data...
Computing Atmospheric mass density...
Loading historical data...
Loading historical data...
Loading historical data...
Loading historical data...
Loading historical data...
Loading historical data...
Loading historical data...

Documentation

Showing up to 5 results
|